AO-07 1 07530U 74089B 15343.96086098 -.00000041 00000-0 17890-4 0 9990 2 07530 101.5471 314.5708 0011942 322.5388 071.9006 12.53618321879056 FO-29 1 24278U 96046B 15344.86969551 -.00000016 00000-0 22003-4 0 9993 2 24278 98.5683 289.9722 0350088 333.0627 25.2708 13.53061938953911 SO-33 1 25509U 98061B 15344.27784167 .00000339 00000-0 53096-4 0 9996 2 25509 31.4339 332.9640 0347530 177.4384 182.8105 14.30102276894641 RS-22 1 27939U 03042A 15344.42758771 .00000643 00000-0 12499-3 0 9998 2 27939 97.8612 138.7309 0012792 182.8131 177.3003 14.66248342652016 HO-68 1 36122U 09072B 15344.65262882 -.00000059 00000-0 -43517-4 0 9998 2 36122 100.1711 22.9785 0008018 74.7001 285.4990 13.16331170287679 AO-73 1 39444U 13066AE 15344.83655148 .00001436 00000-0 18830-3 0 9994 2 39444 97.7092 40.9490 0057934 279.6782 79.7890 14.80688059109554 EO-79 1 40025U 14033R 15344.67605330 .00001549 00000-0 17637-3 0 9995 2 40025 97.9399 245.0772 0012212 332.4985 27.5583 14.87610422 80023 XW-2A 1 40903U 15049E 15344.87973531 .00006242 00000-0 18937-3 0 9990 2 40903 97.4524 352.9325 0018630 91.5108 27.6256 15.34308938 12500 XW-2C 1 40906U 15049H 15344.86967773 .00002682 00000-0 15676-3 0 9994 2 40906 97.4546 351.1411 0015601 337.9427 142.1975 15.12643732 12376 LILACSAT-2 1 40908U 15049K 15344.90053396 .00002185 00000-0 13083-3 0 9996 2 40908 97.4609 351.1653 0016200 330.0777 144.9651 15.11958108 12370 XW-2E 1 40909U 15049L 15344.85097431 .00004364 00000-0 24933-3 0 9996 2 40909 97.4543 351.1650 0014875 341.9442 139.8700 15.13128718 12377 UO-11 1 14781U 84021B 15344.46476771 .00000505 00000-0 69175-4 0 9997 2 14781 97.7786 36.9913 0007858 206.7113 153.3696 14.82604570708146 AO-16 1 20439U 90005D 15344.43770699 .00000092 00000-0 49839-4 0 9992 2 20439 98.5571 278.1656 0010990 6.2361 105.9220 14.32592994351979 LO-19 1 20442U 90005G 15344.81730356 .00000092 00000-0 49861-4 0 9999 2 20442 98.5277 277.5589 0011638 351.9074 8.1921 14.32782145352236 AO-27 1 22825U 93061C 15344.45921775 .00000053 00000-0 38020-4 0 9990 2 22825 98.7331 294.8162 0008925 146.5269 213.6478 14.29923436158122 IO-26 1 22826U 93061D 15344.82630189 .00000080 00000-0 48287-4 0 9994 2 22826 98.7276 295.3305 0009597 137.9741 222.2179 14.30244646158339 GO-32 1 25397U 98043D 15344.08990428 .00000018 00000-0 26705-4 0 9990 2 25397 98.5438 289.2088 0001749 133.8965 226.2358 14.23573280904813 NO-44 1 26931U 01043C 15344.43024493 .00000060 00000-0 54735-4 0 9999 2 26931 67.0520 82.4521 0007025 276.2747 83.7554 14.30367512741000 SO-50 1 27607U 02058C 15343.92872962 .00000507 00000-0 92202-4 0 9999 2 27607 064.5557 022.0909 0081731 254.8701 104.3350 14.74967102697071 CO-55 1 27844U 03031E 15344.46200039 .00000193 00000-0 10713-3 0 9991 2 27844 98.6944 350.4738 0010272 146.5580 213.6248 14.21884832645482 CO-57 1 27848U 03031J 15344.52613152 .00000158 00000-0 92005-4 0 9992 2 27848 98.7041 350.5351 0010071 153.7994 206.3695 14.21520319645395 AO-51 1 28375U 04025K 15343.90040497 .00000077 00000-0 35600-4 0 9997 2 28375 098.3109 279.4443 0083076 158.1673 202.3091 14.41728220601741 CP3 1 31129U 07012N 15344.88023491 .00000616 00000-0 14109-3 0 9999 2 31129 98.0056 303.2301 0097268 122.7237 238.3385 14.56071113458822 CO-65 1 32785U 08021C 15344.19466879 .00000855 00000-0 10059-3 0 9999 2 32785 97.6274 21.0945 0012792 199.4286 160.6444 14.87251645412389 PRISM 1 33493U 09002B 15344.87642221 .00002869 00000-0 27321-3 0 9995 2 33493 98.2349 190.8784 0017251 108.2014 252.1101 14.94168141372955 SOHLA-1 1 33496U 09002E 15344.22733821 .00000243 00000-0 47534-4 0 9997 2 33496 98.2350 113.8777 0005654 335.9847 71.4937 14.71488961369061 TISAT-1 1 36799U 10035E 15344.82076643 .00002106 00000-0 22854-3 0 9999 2 36799 98.0227 87.4029 0012477 353.5607 6.5447 14.89213561293239 STUDSAT 1 36801U 10035G 15343.95304712 .00013720 00000-0 67525-3 0 9995 2 36801 098.0770 114.0821 0005561 257.6524 102.4085 15.18117593294451 ALMASAT-1 1 38078U 12006B 15344.80767601 .00023962 34273-5 37523-3 0 9996 2 38078 69.4497 151.7258 0433272 10.7533 350.2518 14.90307439201249 CUBEBUG-1 1 39153U 13018D 15344.81704966 .00001076 00000-0 15043-3 0 9992 2 39153 98.0095 68.6349 0018024 45.8171 314.4518 14.79590634141595 ESTCUBE-1 1 39161U 13021C 15344.68191427 .00000654 00000-0 11356-3 0 9996 2 39161 98.0628 66.0028 0010843 109.6993 250.5388 14.71440169139191 DUCHIFAT-1 1 40021U 14033M 15344.78631601 .00002280 00000-0 24986-3 0 9991 2 40021 97.9424 245.8409 0012873 331.6102 28.4412 14.88718050 80071 NANOSATCBR1 1 40024U 14033Q 15344.69631864 .00002051 00000-0 22816-3 0 9991 2 40024 97.9402 245.3705 0012085 331.5287 28.5268 14.88210116 80049 DTUSAT-2 1 40030U 14033W 15344.67820404 .00001605 00000-0 18424-3 0 9990 2 40030 97.9383 244.6853 0011506 326.0445 34.0033 14.87245595 80008 ANTELSAT 1 40034U 14033AA 15344.67209562 .00001056 00000-0 16775-3 0 9997 2 40034 97.9244 232.6526 0058337 274.4916 84.9652 14.73087098 79279 MET-2/21 1 22782U 93055A 15344.43540080 .00000072 00000-0 51657-4 0 9991 2 22782 82.5496 103.8208 0022441 183.7396 239.3592 13.83781630124975 OKEAN-4 1 23317U 94066A 15344.22435146 .00000693 00000-0 74432-4 0 9997 2 23317 82.5385 280.0325 0021629 104.6723 11.0642 14.86950926143453 NOAA-14 1 23455U 94089A 15344.45592203 .00000008 00000-0 26965-4 0 9996 2 23455 98.7407 62.1795 0008517 301.4556 119.7442 14.14061707 80446 NOAA-15 1 25338U 98030A 15344.52567306 .00000102 00000-0 61743-4 0 9990 2 25338 98.7791 343.3451 0011036 21.9889 338.1762 14.25684242913961 RESURS 1 25394U 98043A 15343.88677396 .00000004 00000-0 19828-4 0 9993 2 25394 98.4902 292.8329 0002377 105.5283 318.0212 14.24463752905295 FENGYUN1 1 25730U 99025A 15344.08144617 .00000973 00000-0 53712-3 0 9990 2 25730 98.9591 309.0511 0020837 1.9002 130.8696 14.13743243853901 OKEAN-0 1 25860U 99039A 15344.43432367 .00000426 00000-0 69066-4 0 9993 2 25860 98.1188 313.0269 0001847 97.0059 15.9103 14.76222308881980 NOAA-16 1 26536U 00055A 15344.96664362 .00000236 00000-0 14995-3 0 9993 2 26536 98.9227 50.5939 0011525 92.6658 267.5802 14.13124553784639 NOAA-17 1 27453U 02032A 15344.54330284 .00000022 00000-0 27207-4 0 9990 2 27453 98.3599 321.9794 0012312 30.2969 329.8920 14.24912427699776 NOAA-18 1 28654U 05018A 15344.54712150 .00000048 00000-0 51338-4 0 9997 2 28654 99.1937 341.5878 0014202 183.0396 177.0691 14.12253490543969 NOAA-19 1 33591U 09005A 15344.47083699 .00000128 00000-0 94448-4 0 9992 2 33591 99.0141 294.9665 0014666 36.4571 323.7596 14.12013383352367 HUBBLE 1 20580U 90037B 15343.67025914 .00001593 00000-0 89820-4 0 9993 2 20580 28.4704 76.5095 0002693 326.6051 181.6358 15.07957154206326 ISS 1 25544U 98067A 15344.32225825 .00012026 00000-0 18526-3 0 9992 2 25544 51.6430 285.0451 0007981 257.2582 201.1055 15.54604511975447 CO-58 1 28895U 05043F 15344.18203769 .00000518 00000-0 10937-3 0 9994 2 28895 97.8206 162.8115 0018284 99.4913 260.8358 14.63010408539329 FALCON 1 30776U 07006E 15343.36698488 .00007119 00000-0 26455-3 0 9997 2 30776 35.4257 341.0415 0001149 258.7586 101.3008 15.26908244483071 MAST 1 31126U 07012K 15343.89862929 .00000376 00000-0 90195-4 0 9996 2 31126 097.9858 304.1945 0091972 107.6027 253.5243 14.56226774459004 CAPE1 1 31130U 07012P 15343.88327221 .00000495 00000-0 11619-3 0 9996 2 31130 98.0072 301.6926 0097923 128.0247 232.9841 14.55727334458442 COMPASS 1 32787U 08021E 15344.09652617 .00001569 00000-0 16229-3 0 9995 2 32787 97.6295 26.2205 0012880 182.3062 177.8100 14.91419294412729 AAUSAT2 1 32788U 08021F 15344.09727879 .00001660 00000-0 16666-3 0 9996 2 32788 97.6306 28.0429 0012383 177.5946 182.5336 14.92548863412838 DO-64 1 32789U 08021G 15344.39822610 .00005366 00000-0 41796-3 0 9998 2 32789 97.6264 41.8883 0012266 173.6754 186.4628 15.01574156413500 CO-66 1 32791U 08021J 15344.75649817 .00001662 00000-0 18071-3 0 9992 2 32791 97.6290 24.1574 0013512 188.6682 171.4304 14.89316872412591 RS-30 1 32953U 08025A 15344.66034128 .00000010 00000-0 -13620-7 0 9995 2 32953 82.5040 224.4921 0019750 54.9749 305.3177 12.43065581342535 METEOR-M 1 35865U 09049A 15344.69519980 -.00000020 00000-0 96874-5 0 9995 2 35865 98.4799 18.5220 0001902 350.7588 116.0994 14.22054265323291 RS-38 1 35869U 09049E 15344.67486878 .00000010 00000-0 23188-4 0 9991 2 35869 98.4718 18.0464 0004143 332.9860 27.1078 14.22320289323349 JUGNU 1 37839U 11058B 15343.91544206 .00000378 00000-0 59385-4 0 9994 2 37839 019.9602 217.1673 0019038 182.8556 281.2016 14.12509046214988 SRMSAT 1 37841U 11058D 15344.87870251 .00000354 00000-0 49434-4 0 9993 2 37841 19.9713 241.6356 0012021 113.2061 317.8295 14.10513679214922 RAX-2 1 37853U 11061D 15344.79119045 .00008289 00000-0 49174-3 0 9993 2 37853 101.7075 282.8023 0188844 279.4509 78.5398 14.98080801223526 AUBIESAT 1 37854U 11061E 15344.77318960 .00007758 00000-0 44884-3 0 9992 2 37854 101.6973 287.1198 0178060 272.0939 85.9889 15.00363446223675 HRBE 1 37855U 11061F 15344.78844626 .00009019 00000-0 50527-3 0 9990 2 37855 101.7084 285.3353 0194016 275.5256 82.3852 14.99237767223597 HORYU-2 1 38340U 12025D 15343.94246980 .00000908 00000-0 14404-3 0 9999 2 38340 098.3351 318.6576 0010524 257.0019 103.0014 14.74697710181028 RS-40 1 38735U 12041C 15344.68685241 .00000040 00000-0 21992-3 0 9991 2 38735 82.4744 309.9195 0016988 151.6877 208.5121 12.42570088152835 PROITERES 1 38756U 12047B 15344.87308340 .00000468 00000-0 75617-4 0 9991 2 38756 98.2276 87.2449 0013444 93.2176 267.0573 14.76025830175068 BEESAT-3 1 39134U 13015E 15343.96064313 .00004082 00000-0 23243-3 0 9999 2 39134 064.8716 214.3606 0018712 232.9488 126.9926 15.14130363144912 BEESAT-2 1 39136U 13015G 15343.89303267 .00003954 00000-0 23801-3 0 9994 2 39136 64.8723 218.5437 0018990 230.3938 129.5510 15.12156852145211 ZACUBE-1 1 39417U 13066B 15344.39890588 .00001077 00000-0 14496-3 0 9999 2 39417 97.7086 40.1253 0058609 282.5289 76.9372 14.80083064110697 TRITON-1 1 39427U 13066M 15344.75578892 .00000929 00000-0 15895-3 0 9990 2 39427 97.6926 24.9234 0114326 323.7226 35.6266 14.66940586109740 DELFIN3XT 1 39428U 13066N 15344.83260336 .00001573 00000-0 26597-3 0 9998 2 39428 97.6943 23.0231 0122552 329.3815 30.0275 14.65875265109618 GOMX-1 1 39430U 13066Q 15344.76716197 .00000687 00000-0 13541-3 0 9994 2 39430 97.6903 14.9691 0153175 353.7489 6.1784 14.58343491109116 LO-74 1 39440U 13066AA 15344.75217997 .00001070 00000-0 15897-3 0 9991 2 39440 97.7019 34.2935 0080277 297.3975 61.9084 14.74871548110354 PUCPSAT-1 1 39442U 13066AC 15344.83768339 .00001891 00000-0 20426-3 0 9998 2 39442 97.7212 50.6906 0031352 258.8598 100.9094 14.89186156110157 SPROUT 1 39770U 14029E 15343.88227052 .00002143 00000-0 26032-3 0 9998 2 39770 97.8733 78.3969 0009039 353.9182 6.1919 14.84542445 83692 POPSAT-HIP1 1 40028U 14033U 15344.72958523 .00001404 00000-0 16092-3 0 9993 2 40028 97.9421 245.2496 0013665 329.5786 30.4634 14.87489578 80022 EO-80 1 40032U 14033Y 15344.76289570 .00001609 00000-0 18495-3 0 9997 2 40032 97.9391 244.7809 0011444 325.8421 34.2057 14.87175038 80016 VELOX-1 1 40057U 14034E 15344.85923626 .00001113 00000-0 16814-3 0 9995 2 40057 98.2059 65.7992 0011848 39.4240 320.7819 14.76302391 77946 DAURIA DX 1 1 40071U 14037C 15344.86303673 .00000534 00000-0 77019-4 0 9990 2 40071 98.3430 63.4229 0009423 39.5355 320.6541 14.80621916 76939 UKUBE-1 1 40074U 14037F 15344.87356600 .00001130 00000-0 14732-3 0 9997 2 40074 98.3460 64.8150 0005588 48.0147 312.1539 14.82665710 77010 HODOYOSHI-1 1 40299U 14070B 15344.85835778 .00002903 00000-0 13625-3 0 9998 2 40299 97.4458 64.1901 0012775 230.9016 266.4059 15.20382411 60653 CHUBUSAT-1 1 40300U 14070C 15344.87806160 .00003439 00000-0 16781-3 0 9997 2 40300 97.4425 62.9704 0020473 236.8351 257.4428 15.18789320 60587 QSAT-EOS 1 40301U 14070D 15344.86459656 .00006428 00000-0 30596-3 0 9992 2 40301 97.4376 62.1725 0029542 238.3302 214.6490 15.19114465 60540 TSUBAME 1 40302U 14070E 15344.86254824 .00003338 00000-0 18302-3 0 9991 2 40302 97.4346 59.8066 0040557 246.4666 249.0163 15.14170759 60396 FIREBIRD FU3 1 40377U 15003B 15344.79292565 .00007526 00000-0 35658-3 0 9992 2 40377 99.0975 51.0593 0151521 34.4976 326.5970 15.10041189 47174 FIREBIRD FU4 1 40378U 15003C 15344.79020041 .00007488 00000-0 35439-3 0 9995 2 40378 99.0976 51.0646 0151837 34.4574 326.6382 15.10041668 47179 GRIFEX 1 40379U 15003D 15344.80219484 .00006107 00000-0 29826-3 0 9999 2 40379 99.0984 50.7293 0154212 36.5210 324.6412 15.08843636 47166 LAMBDA-SAT 1 40458U 98067GB 15136.30676273 .20783109 12527-4 14817-2 0 9995 2 40458 051.6075 233.7697 0010355 318.5347 043.1720 16.39926603 21161 NO-84 1 40654U 15025X 15344.05074768 .00011592 00000-0 28217-3 0 02079 2 40654 054.9900 174.6423 0224703 322.0514 036.4849 15.19472157030852 NO-83 1 40655U 15025X 15344.03294866 .00017393 00000-0 40030-3 0 02141 2 40655 054.9888 173.2242 0216574 322.6083 036.0030 15.21897622030877 DEORBITSAIL 1 40719U 15032E 15344.72552588 .00001972 00000-0 29990-3 0 9992 2 40719 98.0366 232.8278 0017753 122.0601 238.2335 14.75028333 22558 NUDT-PHONESAT 1 40900U 15049B 15344.85260497 .00007122 00000-0 38964-3 0 9995 2 40900 97.4472 351.2204 0016364 359.8790 83.9757 15.14445314 12392 XW-2D 1 40907U 15049J 15344.87213259 .00002969 00000-0 17331-3 0 9997 2 40907 97.4509 351.1010 0014877 336.9095 143.0921 15.12610509 12372 XW-2F 1 40910U 15049M 15344.87517455 .00004276 00000-0 24742-3 0 9993 2 40910 97.4542 351.1313 0016066 335.2232 144.2752 15.12673056 12265 XW-2B 1 40911U 15049N 15344.87087073 .00002828 00000-0 16517-3 0 9994 2 40911 97.4558 351.1537 0014851 336.5962 142.6402 15.12629397 12279 DCBB 1 40912U 15049P 15344.84722314 .00004848 00000-0 26626-3 0 9992 2 40912 97.4553 351.3276 0016603 333.0781 150.3819 15.14470748 12280 TW-1C 1 40926U 15051B 15344.81001932 .00012623 00000-0 41142-3 0 9993 2 40926 97.3002 19.1119 0016981 13.8491 74.1129 15.31812917 11720 TW-1A 1 40928U 15051D 15344.82145447 .00006649 00000-0 22395-3 0 9996 2 40928 97.2935 19.0317 0015782 29.0228 57.3003 15.30966463 11729 IO-86 1 40931U 15052B 15344.19253149 .00000721 00000-0 11480-4 0 9999 2 40931 5.9971 229.6782 0014298 311.2610 48.6494 14.76387438 10809 AAUSat-5 1 40948U 98067GZ 15344.86992584 .00105794 00000-0 10558-2 0 9990 2 40948 51.6396 279.9077 0005218 194.1198 165.9652 15.64795716 10340 GomX-3 1 40949U 98067HA 15344.85597061 .00041531 00000-0 47621-3 0 9991 2 40949 51.6419 280.5716 0004881 218.6473 141.4172 15.61650269 10333 LQSat 1 40958U 15057A 15344.83320616 .00000248 00000-0 46599-4 0 9991 2 40958 98.0356 57.0417 0019231 42.7016 317.5675 14.72763123 9514 AO-85 1 40967U 15058D 15344.32453720 .00001845 00000-0 20662-3 0 00659 2 40967 064.7773 101.4283 0217658 263.0133 094.6183 14.74493538009130 /EX